Location: ?????
(32.7281°N, 34.9563°E)
Time: 18:20:34
(UTC+00:00)

COSMO-SKYMED 1 - Pass Details

Date: 29 October 2020
Orbit: 621 x 623 km, 97.9° (Epoch: 01 December)

Event Time Altitude Azimuth Distance (km) Brightness Sun altitude
Rises 15:27:29 0° 16° (NNE) 2,905 5.7 -8.1°
Reaches altitude 10° 15:29:42 10° 19° (NNE) 1,995 4.9 -8.6°
Maximum altitude 15:34:01 63° 101° (E) 694 2.6 -9.5°
Drops below altitude 10° 15:38:17 10° 183° (S) 1,981 5.3 -10.4°
Sets 15:40:28 0° 186° (S) 2,883 6.2 -10.8°
